Terminal Aerodrome Forecast
Issued by NWS

Home | Current Version | Previous Version | Text Only | Print | Product List | Glossary On
Versions: 1 2 3 4 5 6 7 8 9 10 11 12 13 14 15 16 17 18 19 20 21 22 23 24 25 26 27 28 29 30 31 32 33 34
796
FTUS41 KBOX 081451 AAA
TAFBED
TAF AMD
KBED 081451Z 0815/0912 36014G21KT P6SM OVC030
     FM081515 01013G20KT 2SM -SN BR OVC020
     FM081700 02016G34KT 1/2SM SN OVC010
     FM082200 36012G24KT 2SM -SN OVC008
     FM090200 35008KT 1SM -SHSN OVC008
     FM090600 36004KT 2SM -SHSN OVC008
     FM091000 00000KT P6SM VCSH OVC008=

USA.gov is the U.S. government's official web portal to all federal, state and local government web resources and services.